DW4721 Fema DK current weather conditions

sailwx.info

Wind from 311 at 5 knots gusting 8

Air temperature 5.0° C
Dewpoint -0.0° C

Last reported at 2019-Mar-25 23:00 UTC.
Time now 2019-Mar-25 23:59 UTC

Location: N 54°59' E 011°32'.
View on Google Maps.

See reports from other nearby stations

  
Tides and Currents Weather Stations Pressure Air Temp Water Temp Dewpoint Dewpoint Depression Visibility Wind Speed Wind Dir Waves Ship Positions
date/time (UTC)wind fromknots sea level pressurealtimeterstation pressurevisibilityair tempwater tempwave heightnotes
2019-Mar-25 23:00 311 5 gusting 8 5.0
2019-Mar-25 22:45 313 6 gusting 9 5.0
2019-Mar-25 22:30 288 2 gusting 7 5.0
2019-Mar-25 22:15 291 5 gusting 7 5.0
2019-Mar-25 22:00 295 4 gusting 6 5.0
2019-Mar-25 21:45 306 4 gusting 7 5.6
2019-Mar-25 21:30 308 5 gusting 7 5.6
2019-Mar-25 21:15 322 4 gusting 6 5.0
2019-Mar-25 21:02 334 5.0
2019-Mar-25 20:47 340 4 gusting 6 4.4
2019-Mar-25 20:31 355 4.4
2019-Mar-25 20:17 352 4 gusting 8 5.0
2019-Mar-25 20:01 011 6 gusting 7 5.0
2019-Mar-25 19:46 347 5 gusting 9 5.0
2019-Mar-25 19:31 032 6 gusting 9 5.0
2019-Mar-25 19:17 334 6 gusting 9 5.6
2019-Mar-25 19:01 037 6 gusting 9 5.6
2019-Mar-25 18:47 005 5 gusting 10 5.6
2019-Mar-25 18:31 023 5 gusting 8 6.1
2019-Mar-25 18:15 352 6 gusting 11 6.1
2019-Mar-25 18:00 029 6 gusting 13 6.1
2019-Mar-25 17:46 035 8 gusting 12 6.1
2019-Mar-25 17:31 024 7 gusting 13 6.7
2019-Mar-25 17:16 032 6 gusting 11 6.7
2019-Mar-25 17:02 024 7 gusting 15 7.2
2019-Mar-25 16:46 006 8 gusting 13 7.2
2019-Mar-25 16:31 039 7 gusting 12 7.8
2019-Mar-25 16:15 013 7 gusting 12 7.8
2019-Mar-25 16:00 035 6 gusting 11 8.3
2019-Mar-25 15:45 020 8 gusting 16 8.3
2019-Mar-25 15:31 017 7 gusting 13 7.8
2019-Mar-25 15:15 029 6 gusting 13 7.8
2019-Mar-25 15:00 018 6 gusting 13 7.8
2019-Mar-25 14:45 032 7 gusting 13 7.2
2019-Mar-25 14:30 020 7 gusting 15 7.2
2019-Mar-25 14:15 030 8 gusting 15 7.2
2019-Mar-25 14:00 032 7 gusting 13 6.7
2019-Mar-25 13:46 044 4 gusting 11 6.7
2019-Mar-25 13:32 022 6 gusting 13 6.1
2019-Mar-25 13:17 034 6 gusting 13 6.1
2019-Mar-25 13:01 020 7 gusting 16 6.1
2019-Mar-25 12:46 028 10 gusting 18 6.1
2019-Mar-25 12:32 042 10 gusting 19 6.7
2019-Mar-25 12:16 350 9 gusting 18 6.1
2019-Mar-25 12:00 358 13 gusting 19 6.7
2019-Mar-25 11:45 004 13 gusting 18 6.7
2019-Mar-25 11:31 348 11 gusting 18 6.1
2019-Mar-25 11:16 360 11 gusting 17 5.6
2019-Mar-25 11:00 340 11 gusting 17 5.6
2019-Mar-25 10:45 355 9 gusting 13 6.1
2019-Mar-25 10:30 311 11 gusting 19 5.6
2019-Mar-25 10:15 011 11 gusting 18 5.6
2019-Mar-25 10:01 357 11 gusting 18 5.6
2019-Mar-25 09:46 004 10 gusting 19 6.1
2019-Mar-25 09:30 344 13 gusting 18 5.6
2019-Mar-25 09:15 347 11 gusting 18 6.1
2019-Mar-25 09:00 337 12 gusting 17 5.6
2019-Mar-25 08:45 331 11 gusting 17 5.6
2019-Mar-25 08:30 346 8 gusting 15 5.6
2019-Mar-25 08:15 314 11 gusting 17 5.0
2019-Mar-25 08:00 314 9 gusting 17 5.0
2019-Mar-25 07:45 319 10 gusting 18 5.0
2019-Mar-25 07:30 326 9 gusting 16 5.0
2019-Mar-25 07:15 332 8 gusting 13 4.4
2019-Mar-25 07:00 343 9 gusting 15 4.4
2019-Mar-25 06:45 318 8 gusting 15 4.4
2019-Mar-25 06:30 333 8 gusting 12 4.4
2019-Mar-25 06:15 320 9 gusting 13 4.4
2019-Mar-25 06:02 329 7 gusting 13 3.9
2019-Mar-25 05:46 323 9 gusting 16 4.4
2019-Mar-25 05:32 309 9 gusting 17 4.4
2019-Mar-25 05:16 302 9 gusting 15 4.4
2019-Mar-25 05:01 294 11 gusting 18 3.9
2019-Mar-25 04:46 304 11 gusting 17 3.9
2019-Mar-25 04:32 300 11 gusting 17 3.9
2019-Mar-25 04:16 299 9 gusting 15 3.9
2019-Mar-25 04:01 307 10 gusting 19 3.9
2019-Mar-25 03:46 311 9 gusting 18 3.9
2019-Mar-25 03:31 311 10 gusting 15 3.9
2019-Mar-25 03:17 318 6 gusting 15 3.9
2019-Mar-25 03:01 312 9 gusting 16 3.9
2019-Mar-25 02:46 313 9 gusting 17 3.9
2019-Mar-25 02:31 269 9 gusting 17 5.0
2019-Mar-25 02:16 238 8 gusting 19 5.0
2019-Mar-25 02:01 246 12 gusting 19 5.6
2019-Mar-25 01:46 242 11 gusting 19 5.6
2019-Mar-25 01:31 244 10 gusting 16 5.6
2019-Mar-25 01:15 240 7 gusting 16 5.6
2019-Mar-25 01:00 248 9 gusting 17 5.6
2019-Mar-25 00:45 265 8 gusting 18 5.6
2019-Mar-25 00:30 244 9 gusting 16 5.6
2019-Mar-25 00:15 248 8 gusting 16 5.6
2019-Mar-25 00:00 236 9 gusting 16 5.0
2019-Mar-24 23:45 238 10 gusting 16 5.0
2019-Mar-24 23:30 255 7 gusting 15 5.0
2019-Mar-24 23:16 250 7 gusting 13 5.0
2019-Mar-24 23:02 242 7 gusting 15 5.0
2019-Mar-24 22:46 236 7 gusting 12 5.0
2019-Mar-24 22:31 245 6 gusting 11 5.0
2019-Mar-24 22:17 272 6 gusting 13 5.0
2019-Mar-24 22:01 255 6 gusting 12 5.0
2019-Mar-24 21:46 251 6 gusting 12 5.0
2019-Mar-24 21:31 255 7 gusting 13 5.6
2019-Mar-24 21:16 255 6 gusting 11 5.6
2019-Mar-24 21:01 295 7 gusting 15 5.6
2019-Mar-24 20:45 279 7 gusting 13 5.6
2019-Mar-24 20:30 272 7 gusting 12 6.1
2019-Mar-24 20:15 269 7 gusting 15 6.1
2019-Mar-24 20:00 269 6 gusting 13 6.1
2019-Mar-24 19:45 265 8 gusting 15 6.1
2019-Mar-24 19:30 271 8 gusting 15 6.1
2019-Mar-24 19:16 255 8 gusting 11 6.1
2019-Mar-24 19:01 250 6 gusting 11 6.1
2019-Mar-24 18:45 270 6 gusting 10 6.1
2019-Mar-24 18:31 265 6 gusting 11 6.1
2019-Mar-24 18:15 265 6 gusting 10 6.7
2019-Mar-24 18:00 269 6 gusting 9 6.7
2019-Mar-24 17:45 270 5 gusting 9 6.7
2019-Mar-24 17:30 260 5 gusting 9 6.7
2019-Mar-24 17:15 260 6 gusting 9 6.7
2019-Mar-24 17:00 265 6 gusting 11 7.2
2019-Mar-24 16:45 270 6 gusting 11 7.2
2019-Mar-24 16:30 265 6 gusting 13 7.2
2019-Mar-24 16:15 271 6 gusting 13 7.8
2019-Mar-24 16:00 269 7 gusting 12 7.8
2019-Mar-24 15:46 269 6 gusting 11 7.8
2019-Mar-24 15:31 260 5 gusting 9 7.8
2019-Mar-24 15:16 277 6 gusting 10 7.8
2019-Mar-24 15:02 269 6 gusting 10 7.8
2019-Mar-24 14:46 265 6 gusting 12 7.8
2019-Mar-24 14:31 280 5 gusting 11 7.8
2019-Mar-24 14:16 270 6 gusting 11 7.8
2019-Mar-24 14:01 269 7 gusting 11 7.8
2019-Mar-24 13:46 275 6 gusting 10 7.8
2019-Mar-24 13:31 275 6 gusting 11 7.8
2019-Mar-24 13:16 309 6 gusting 9 7.8
2019-Mar-24 13:01 305 3 gusting 10 7.8
2019-Mar-24 12:46 287 5 gusting 11 7.8
2019-Mar-24 12:31 283 7 gusting 12 7.2
2019-Mar-24 12:16 286 6 gusting 11 7.2
2019-Mar-24 12:01 294 5 gusting 12 7.2
2019-Mar-24 11:45 278 6 gusting 11 7.2
2019-Mar-24 11:30 294 6 gusting 12 7.2
2019-Mar-24 11:15 299 5 gusting 9 6.7
2019-Mar-24 11:00 324 3 gusting 8 7.2
2019-Mar-24 10:45 322 4 gusting 8 6.7
2019-Mar-24 10:30 286 5 gusting 9 6.7
2019-Mar-24 10:15 299 5 gusting 8 6.1
2019-Mar-24 10:02 287 6 gusting 9 6.1
2019-Mar-24 09:46 282 6 gusting 9 5.6
2019-Mar-24 09:31 279 5 gusting 9 5.6
2019-Mar-24 09:16 302 6 gusting 8 5.6
2019-Mar-24 09:01 278 6 gusting 10 5.6
2019-Mar-24 08:46 296 4 gusting 7 5.6
2019-Mar-24 08:31 278 5 gusting 7 5.6
2019-Mar-24 08:17 294 6 gusting 8 5.6
2019-Mar-24 08:01 292 4 gusting 8 5.6
2019-Mar-24 07:45 273 5 gusting 8 5.6
2019-Mar-24 07:30 279 5.0
2019-Mar-24 07:16 296 5 gusting 7 5.0
2019-Mar-24 07:01 320 2 gusting 7 5.0
2019-Mar-24 06:46 304 3 gusting 7 5.0
2019-Mar-24 06:30 311 4 gusting 8 5.0
2019-Mar-24 06:16 312 4 gusting 8 5.0
2019-Mar-24 06:00 320 3 gusting 7 5.0
2019-Mar-24 05:45 313 3 gusting 8 5.0
2019-Mar-24 05:30 304 0 gusting 8 5.0
2019-Mar-24 05:15 315 6 gusting 7 5.0
2019-Mar-24 05:00 327 3 gusting 7 5.0
2019-Mar-24 04:46 322 0 gusting 6 5.0
2019-Mar-24 04:30 318 1 gusting 6 5.0
2019-Mar-24 04:15 323 3 gusting 6 5.0
2019-Mar-24 04:00 328 6 gusting 9 5.0
2019-Mar-24 03:45 327 5 gusting 8 5.0
2019-Mar-24 03:30 321 6 gusting 9 5.0
2019-Mar-24 03:15 319 5 gusting 8 5.0
2019-Mar-24 03:00 317 6 gusting 9 5.0
2019-Mar-24 02:45 323 6 gusting 10 5.0
2019-Mar-24 02:30 334 5 gusting 9 5.0
2019-Mar-24 02:15 330 6 gusting 9 5.0
2019-Mar-24 02:00 325 6 gusting 9 5.0
2019-Mar-24 01:47 331 6 gusting 13 5.0
2019-Mar-24 01:32 321 6 gusting 12 5.0
2019-Mar-24 01:16 305 6 gusting 10 5.0
2019-Mar-24 01:02 311 7 gusting 10 5.0
2019-Mar-24 00:46 313 5 gusting 9 5.0
2019-Mar-24 00:31 315 5 gusting 11 5.0
2019-Mar-24 00:16 317 6 gusting 9 5.0
2019-Mar-24 00:01 337 6 gusting 10 5.0
2019-Mar-23 23:46 317 6 gusting 10 5.0
2019-Mar-23 23:31 325 6 gusting 11 5.0
2019-Mar-23 23:17 330 6 gusting 10 5.0
2019-Mar-23 23:01 336 6 gusting 10 5.6